Weather in Rudivka

Ukraine / Chernihiv Region     50°33′58″N   32°10′03″E
temp.,
°C
wind,
m/s
gust,
m/s
humid.,
%
clouds,
%
prec.,
mm/h
press.,
hPa
HPBL,
m
16 october, sat
sat1600:00+6s37715 0.0 1022113
03:00+5s347575 0.0 102059
06:00+5s357943 0.0 102076
09:00+7s3769100 0.0 1020219
12:00+7ssw3879100 0.1 1019276
15:00+8sw3786100 0.2 1018318
18:00+7ssw349128 0.0 101859
21:00+6sw339361 0.0 101932
17 october, sun
sun1700:00+5wnw22926 0.0 101915
03:00+5nw339223 0.0 101934
06:00+4nnw339431 0.0 102047
09:00+6nw24846 0.0 1020135
12:00+11wnw34625 0.0 1020717
15:00+12wnw345413 0.0 10181170
18:00+8wnw336634 0.0 101824
21:00+7wnw337148 0.0 101930
18 october, mon
mon1800:00+5nw2277100 0.0 101911
03:00+5w227590 0.0 101921
06:00+4w3580100 0.0 101984
09:00+6w3673100 0.0 1019200
12:00+10w685296 0.0 1018838
15:00+11wnw6849100 0.0 10171674
18:00+10w4760100 0.0 1017262
21:00+9w3766100 0.0 1017253
19 october, tue
tue1900:00+7nw388074 0.0 1018487
03:00+5nw339258 0.0 101859
06:00+4n3589100 0.0 1018111
09:00+5n5971100 0.1 1020430
12:00+8nnw68450 0.0 10211142
15:00+9nw79375 0.0 10221646
18:00+6nw5105496 0.0 1023322
21:00+6nnw595796 0.0 1025669
20 october, wed
wed2000:00+5nw376299 0.0 1026445
03:00+2nw367629 0.0 1027112
06:00+2wnw2378100 0.0 102745
09:00+3nw24765 0.0 1028185
12:00+7wsw2353100 0.0 1028768
15:00+9sw454749 0.0 10261081
18:00+6s355897 0.0 102578
21:00+5s51261100 0.0 1023283